Погода в Богуславе

Украина / Киевская область     49°32′52″N   30°52′26″E
темп.,
°C
ветер,
м/с
пор.,
м/с
влажн.,
%
обл.,
%
осадки,
мм/ч
давл.,
гПа
погр.,
м
14 июня, пн
пн1400:00+12ссз3895100 1.6 1009271
03:00+12ссз41096100 2.8 1009362
06:00+13св5109679 0.7 1009397
09:00+16всв469197 0.7 1010487
12:00+21вюв567284 0.7 10111263
15:00+22вюв46708 2.8 10121238
18:00+22в34724 1.1 10121029
21:00+17всв22885 2.1 101322
15 июня, вт
вт1500:00+16св22915 0.3 101425
03:00+15ссв22935 1.5 101425
06:00+15ссв35955 0.0 1014102
09:00+20ссв34825 0.0 1014392
12:00+23ссв45682 0.8 10131149
15:00+24ссв56631 1.3 10121539
18:00+23ссв577880 1.4 1011858
21:00+18ссв4988100 4.2 1011168
16 июня, ср
ср1600:00+17с41095100 5.0 1011220
03:00+16с4119796 8.1 1011295
06:00+16ссв51296100 0.4 1011390
09:00+18ссв699398 1.2 1013499
12:00+23св787741 0.3 10131132
15:00+23св6777100 3.9 10131000
18:00+21ссв6118657 1.2 1014633
21:00+18ссв4129395 2.6 1014313
17 июня, чт
чт1700:00+17ссв4119682 1.0 1015250
03:00+16ссв41098100 1.0 1015276
06:00+16ссв499945 0.4 1016241
09:00+20св689199 0.4 1017518
12:00+24всв687691 0.5 10181199
15:00+25св797440 1.6 10181272
18:00+23всв7118797 3.0 1019890
21:00+20в512945 4.5 1020433
18 июня, пт
пт1800:00+18всв513977 0.4 1021445
03:00+17всв5129841 0.4 1021403
06:00+15всв511978 0.0 1022329
09:00+19в588743 0.0 1022565
12:00+23в677433 0.0 10221007
15:00+22в5878100 0.1 10221188
18:00+22в697957 0.2 1022983
21:00+18всв499051 0.3 1023210